Weather reports worldwide

Advertisment
Murcia, Spain (8430): temperature & dewpoint: 10.07.2018 18:00:00 - 16.07.2018 18:00:00 (CEST)Murcia, Spain (8430): wind speed: 10.07.2018 18:00:00 - 16.07.2018 18:00:00 (CEST)Murcia, Spain (8430): wind direction: 10.07.2018 18:00:00 - 16.07.2018 18:00:00 (CEST)Murcia, Spain (8430): reduced air pressure: 10.07.2018 18:00:00 - 16.07.2018 18:00:00 (CEST)Murcia, Spain (8430): visibility: 10.07.2018 18:00:00 - 16.07.2018 18:00:00 (CEST)Murcia, Spain (8430): precipitation: 10.07.2018 18:00:00 - 16.07.2018 18:00:00 (CEST)
Date & Time tt [°C] td [°C] ff [km/h] ff [kn] dd ppp [hPa] vv [km] rr [mm]
16.07.2018 18:00:00 - - - - - - - -
16.07.2018 17:00:00 35,9 7,9 13 7 SSE 1014,0 20 -
16.07.2018 16:00:00 35,5 4,9 5 3 SSE 1014,4 20 0,0
16.07.2018 15:00:00 34,8 7,0 8 4 S 1015,1 19 0,0
16.07.2018 14:00:00 33,6 5,2 16 9 W 1015,8 18 -
16.07.2018 13:00:00 32,4 6,6 18 10 W 1016,5 17 0,0
16.07.2018 12:00:00 30,7 6,5 22 12 W 1016,8 11 0,0
16.07.2018 11:00:00 29,2 9,3 24 13 W 1016,9 9 -
16.07.2018 10:00:00 27,8 9,6 16 9 W 1017,1 18 0,0
16.07.2018 09:00:00 26,7 10,0 13 7 W 1017,0 18 0,0
16.07.2018 08:00:00 25,5 9,7 11 6 W 1016,4 20 -
16.07.2018 07:00:00 25,2 9,5 13 7 W 1015,9 20 0,0
16.07.2018 06:00:00 25,8 8,7 11 6 W 1015,2 20 0,0
16.07.2018 05:00:00 25,7 8,7 9 5 NW 1014,5 20 -
16.07.2018 04:00:00 26,9 8,8 11 6 WNW 1014,6 20 0,0
16.07.2018 03:00:00 27,7 7,5 11 6 WNW 1014,4 20 0,0
16.07.2018 02:00:00 27,4 12,6 9 5 W 1014,2 20 -
16.07.2018 01:00:00 27,5 17,4 8 4 WSW 1013,4 18 0,0
16.07.2018 00:00:00 27,3 19,4 8 4 W 1013,2 17 0,0
15.07.2018 23:00:00 27,4 19,5 11 6 NNE 1012,5 16 -
15.07.2018 22:00:00 29,1 14,9 11 6 ENE 1011,1 19 0,0
15.07.2018 21:00:00 31,3 13,1 9 5 SE 1010,7 20 0,0
15.07.2018 20:00:00 32,8 16,2 15 8 ENE 1010,4 20 -
15.07.2018 19:00:00 34,1 14,1 11 6 E 1010,7 20 0,0
15.07.2018 18:00:00 35,4 14,1 11 6 ESE 1011,2 20 0,0
15.07.2018 17:00:00 35,0 16,3 11 6 SE 1011,8 20 -
15.07.2018 16:00:00 34,8 17,1 13 7 SE 1012,0 19 0,0
15.07.2018 15:00:00 37,7 14,9 13 7 ESE 1011,9 19 0,0
15.07.2018 14:00:00 36,8 10,2 9 5 E 1012,8 20 -
15.07.2018 13:00:00 35,5 11,2 8 4 ENE 1013,8 20 0,0
15.07.2018 12:00:00 33,6 13,1 8 4 WNW 1014,7 20 0,0
15.07.2018 11:00:00 31,7 13,9 5 3 NNW 1015,4 20 -
15.07.2018 10:00:00 29,0 14,4 5 3 S 1015,7 20 0,0
15.07.2018 09:00:00 26,1 15,8 4 2 SSW 1015,9 19 0,0
15.07.2018 08:00:00 24,1 15,8 5 3 WSW 1015,6 15 -
15.07.2018 07:00:00 23,1 15,4 4 2 W 1015,4 18 0,0
15.07.2018 06:00:00 23,2 16,0 5 3 SSW 1015,3 19 0,0
15.07.2018 05:00:00 23,5 15,3 5 3 W 1015,3 19 -
15.07.2018 04:00:00 24,2 14,9 4 2 WNW 1015,3 20 0,0
15.07.2018 03:00:00 24,7 15,3 2 1 NE 1015,6 20 0,0
15.07.2018 02:00:00 25,6 16,4 4 2 NE 1015,6 19 -
15.07.2018 01:00:00 26,4 18,3 11 6 NE 1015,9 19 0,0
15.07.2018 00:00:00 26,8 9,6 5 3 NNE 1015,8 20 0,0
14.07.2018 23:00:00 28,0 10,7 4 2 ENE 1015,8 20 -
14.07.2018 22:00:00 29,6 14,2 8 4 S 1014,9 20 0,0
14.07.2018 21:00:00 31,6 15,1 8 4 SE 1014,3 20 0,0
14.07.2018 20:00:00 34,1 14,6 11 6 SE 1013,5 20 -
14.07.2018 19:00:00 35,9 14,5 13 7 SSE 1013,4 20 0,0
14.07.2018 18:00:00 36,9 14,8 13 7 SSE 1013,7 20 0,0
14.07.2018 17:00:00 37,3 14,6 13 7 SE 1013,7 20 -
14.07.2018 16:00:00 37,3 14,0 8 4 ESE 1014,4 20 0,0
14.07.2018 15:00:00 36,4 15,0 9 5 SE 1015,0 20 0,0
14.07.2018 14:00:00 35,1 16,4 9 5 SSE 1015,8 20 -
14.07.2018 13:00:00 33,5 18,0 5 3 S 1016,4 19 0,0
14.07.2018 12:00:00 31,6 19,6 5 3 SSE 1016,9 18 0,0
14.07.2018 11:00:00 29,8 20,1 5 3 SW 1017,1 15 -
14.07.2018 10:00:00 27,4 20,5 8 4 W 1017,3 16 0,0
14.07.2018 09:00:00 26,0 20,3 5 3 S 1017,2 14 0,0
14.07.2018 08:00:00 24,0 19,9 4 2 S 1017,0 10 -
14.07.2018 07:00:00 23,7 19,6 4 2 W 1016,5 14 0,0
14.07.2018 06:00:00 23,8 19,9 4 2 W 1015,9 13 0,0
14.07.2018 05:00:00 24,1 20,0 4 2 NW 1015,9 14 -
14.07.2018 04:00:00 24,7 20,6 4 2 W 1016,1 16 0,0
14.07.2018 03:00:00 25,2 20,9 5 3 S 1016,1 17 0,0
14.07.2018 02:00:00 25,6 21,1 4 2 ESE 1016,4 17 -
14.07.2018 01:00:00 25,9 21,1 5 3 ENE 1016,7 17 0,0
14.07.2018 00:00:00 26,3 20,2 4 2 ENE 1016,8 19 0,0
13.07.2018 23:00:00 27,0 20,1 5 3 ESE 1016,4 20 -
13.07.2018 22:00:00 27,8 19,1 5 3 SE 1015,3 20 0,0
13.07.2018 21:00:00 28,6 19,0 15 8 E 1014,7 20 0,0
13.07.2018 20:00:00 29,6 18,7 16 9 ENE 1014,4 20 -
13.07.2018 19:00:00 30,7 17,4 18 10 ENE 1014,1 20 0,0
13.07.2018 18:00:00 31,7 17,9 21 11 E 1014,2 20 0,0
13.07.2018 17:00:00 32,7 13,8 15 8 E 1014,2 20 -
13.07.2018 16:00:00 33,0 15,9 15 8 E 1014,3 20 0,0
13.07.2018 15:00:00 32,7 17,3 13 7 ESE 1014,3 20 0,0
13.07.2018 14:00:00 31,6 17,9 18 10 E 1014,9 15 -
13.07.2018 13:00:00 32,3 15,3 16 9 E 1014,9 20 0,0
13.07.2018 12:00:00 31,3 17,2 11 6 E 1014,9 20 0,0
13.07.2018 11:00:00 29,7 18,8 5 3 S 1014,7 15 -
13.07.2018 10:00:00 27,5 20,1 9 5 WSW 1014,6 17 0,0
13.07.2018 09:00:00 26,0 20,3 5 3 WSW 1014,6 16 0,0
13.07.2018 08:00:00 25,1 20,6 9 5 WNW 1014,6 1,0 -
13.07.2018 07:00:00 24,8 21,1 8 4 NW 1014,7 12 0,0
13.07.2018 06:00:00 24,8 21,5 8 4 NW 1014,5 12 0,0
13.07.2018 05:00:00 24,4 21,1 5 3 N 1014,1 11 -
13.07.2018 04:00:00 24,9 21,2 5 3 W 1014,7 13 0,0
13.07.2018 03:00:00 25,3 21,2 5 3 N 1014,7 13 0,0
13.07.2018 02:00:00 25,7 21,1 4 2 ENE 1015,3 16 -
13.07.2018 01:00:00 25,4 20,9 8 4 ENE 1015,1 15 0,0
13.07.2018 00:00:00 25,7 20,5 11 6 ENE 1015,3 16 0,0
12.07.2018 23:00:00 26,3 20,2 11 6 ENE 1015,1 18 -
12.07.2018 22:00:00 27,1 19,7 13 7 E 1013,7 19 0,0
12.07.2018 21:00:00 28,6 20,1 16 9 E 1012,8 19 0,0
12.07.2018 20:00:00 29,9 19,9 21 11 ENE 1012,3 20 -
12.07.2018 19:00:00 31,7 20,0 21 11 ENE 1011,7 20 0,0
12.07.2018 18:00:00 33,8 17,5 13 7 ESE 1011,5 20 0,0
12.07.2018 17:00:00 34,1 17,8 16 9 ESE 1011,5 20 -
12.07.2018 16:00:00 35,2 18,7 13 7 ESE 1011,7 20 0,0
12.07.2018 15:00:00 35,2 17,4 8 4 ENE 1011,9 20 0,0
12.07.2018 14:00:00 34,5 14,4 9 5 E 1012,7 19 -
12.07.2018 13:00:00 32,8 15,8 4 2 ESE 1013,3 19 0,0
12.07.2018 12:00:00 31,0 17,0 4 2 ENE 1013,8 19 0,0
12.07.2018 11:00:00 29,0 19,6 4 2 SSW 1014,0 14 -
12.07.2018 10:00:00 26,7 19,8 8 4 S 1014,2 11 0,0
12.07.2018 09:00:00 25,1 20,1 5 3 NW 1013,9 9 0,0
12.07.2018 08:00:00 23,3 20,1 9 5 NW 1013,2 7 -
12.07.2018 07:00:00 22,8 20,5 9 5 NW 1013,2 6 0,0
12.07.2018 06:00:00 23,2 20,7 5 3 NW 1012,8 6 0,0
12.07.2018 05:00:00 23,6 20,5 8 4 WNW 1012,7 7 -
12.07.2018 04:00:00 24,2 20,7 2 1 NW 1012,7 8 0,0
12.07.2018 03:00:00 24,3 21,2 5 3 ENE 1012,9 8 0,0
12.07.2018 02:00:00 23,8 21,1 8 4 ENE 1012,9 6 -
12.07.2018 01:00:00 24,1 21,2 9 5 ENE 1012,6 - 0,0
12.07.2018 00:00:00 24,5 21,0 9 5 ENE 1012,5 7 0,0
11.07.2018 23:00:00 25,0 20,9 13 7 ENE 1011,9 9 -
11.07.2018 22:00:00 25,9 20,7 22 12 ENE 1010,8 11 0,0
11.07.2018 21:00:00 28,2 19,4 24 13 ENE 1010,0 15 0,0
11.07.2018 20:00:00 31,0 18,4 28 15 ENE 1009,6 15 -
11.07.2018 19:00:00 35,0 13,8 11 6 E 1009,5 20 0,0
11.07.2018 18:00:00 35,2 15,0 11 6 ESE 1009,9 20 0,0
11.07.2018 17:00:00 35,3 16,1 15 8 ESE 1010,6 10 -
11.07.2018 16:00:00 35,4 16,2 15 8 ESE 1011,0 20 0,0
11.07.2018 15:00:00 35,3 18,4 15 8 E 1011,4 19 0,0
11.07.2018 14:00:00 35,8 14,5 13 7 E 1011,9 15 -
11.07.2018 13:00:00 34,3 15,7 11 6 ENE 1012,3 19 0,0
11.07.2018 12:00:00 32,2 16,5 8 4 SE 1013,2 20 0,0
11.07.2018 11:00:00 29,7 19,1 4 2 S 1013,3 1,0 -
11.07.2018 10:00:00 27,6 19,9 4 2 SSE 1013,7 11 0,0
11.07.2018 09:00:00 25,2 20,2 4 2 SW 1013,9 8 0,0
11.07.2018 08:00:00 23,7 20,0 4 2 E 1013,5 8 -
11.07.2018 07:00:00 22,3 19,3 2 1 ENE 1013,4 8 0,0
11.07.2018 06:00:00 22,2 18,2 2 1 NNW 1013,0 11 0,0
11.07.2018 05:00:00 22,8 18,1 2 1 SE 1012,9 11 -
11.07.2018 04:00:00 23,6 18,0 2 1 S 1012,8 15 0,0
11.07.2018 03:00:00 24,5 18,4 4 2 SW 1013,2 14 0,0
11.07.2018 02:00:00 25,0 19,6 4 2 ENE 1013,5 15 -
11.07.2018 01:00:00 25,7 20,3 8 4 ENE 1013,8 14 0,0
11.07.2018 00:00:00 26,2 20,3 11 6 NE 1013,7 15 0,0
10.07.2018 23:00:00 27,3 18,0 18 10 NE 1013,5 20 -
10.07.2018 22:00:00 28,8 16,7 18 10 NE 1012,8 20 0,0
10.07.2018 21:00:00 33,4 10,1 8 4 SE 1012,2 20 0,0
10.07.2018 20:00:00 35,1 10,2 11 6 SSE 1012,0 20 -
10.07.2018 19:00:00 36,4 9,8 13 7 SSE 1012,1 20 0,0
10.07.2018 18:00:00 36,9 14,2 13 7 SSE 1012,3 20 0,0

tt = temperature
td = dewpoint
ff = wind speed
dd = wind direction
ppp = reduced air pressure
vv = visibility
rr = precipitation

Next stations